JUDG35 YSHW-YSHW

Flight info

Callsign JUDG35
Flight time 0h 44m
Altitude 3000
Route DCT
Aircraft H60/M-SDFGRY/LB1

Departure

Time 2026-04-17 13:17
Airport Holsworthy (Military) Airport (YSHW)

Arrival

Time 2026-04-17 14:01
Airport Holsworthy (Military) Airport (YSHW)
Time Latitude Longitude Altitude Speed Heading
2026-04-17 13:10 -33.99482 150.95268 243 ft 0 kts 305°
2026-04-17 13:15 -33.99473 150.95253 242 ft 6 kts 304°
2026-04-17 13:16 -33.99496 150.95216 243 ft 8 kts 211°
2026-04-17 13:16 -33.99540 150.95169 244 ft 7 kts 279°
2026-04-17 13:16 -33.99553 150.95190 263 ft 17 kts 129°
2026-04-17 13:16 -33.99700 150.95459 562 ft 59 kts 131°
2026-04-17 13:17 -33.99958 150.96039 995 ft 103 kts 111°
2026-04-17 13:17 -33.99289 150.96532 1290 ft 149 kts 355°
2026-04-17 13:17 -33.98696 150.95715 1892 ft 127 kts 295°
2026-04-17 13:17 -33.98161 150.94816 2106 ft 140 kts 300°
2026-04-17 13:18 -33.97543 150.93778 1547 ft 165 kts 300°
2026-04-17 13:18 -33.96899 150.92676 1370 ft 141 kts 303°
2026-04-17 13:18 -33.96284 150.91741 2009 ft 150 kts 304°
2026-04-17 13:18 -33.95609 150.90734 2089 ft 158 kts 304°
2026-04-17 13:19 -33.94892 150.89721 2054 ft 160 kts 307°
2026-04-17 13:19 -33.94655 150.88663 2084 ft 123 kts 230°
2026-04-17 13:19 -33.95404 150.88427 2253 ft 112 kts 185°
2026-04-17 13:19 -33.96183 150.88330 2117 ft 120 kts 187°
2026-04-17 13:20 -33.97095 150.88188 2165 ft 148 kts 188°
2026-04-17 13:20 -33.98181 150.88022 2164 ft 155 kts 187°
2026-04-17 13:20 -33.99213 150.87856 2142 ft 146 kts 187°
2026-04-17 13:20 -34.00210 150.87690 2148 ft 143 kts 187°
2026-04-17 13:21 -34.01188 150.87526 2162 ft 142 kts 192°
2026-04-17 13:21 -34.02107 150.87114 2171 ft 142 kts 203°
2026-04-17 13:21 -34.02977 150.86587 2176 ft 142 kts 204°
2026-04-17 13:21 -34.03860 150.86062 2176 ft 142 kts 203°
2026-04-17 13:22 -34.04743 150.85530 2175 ft 142 kts 204°
2026-04-17 13:22 -34.05631 150.85008 2174 ft 141 kts 204°
2026-04-17 13:22 -34.06509 150.84487 2175 ft 140 kts 204°
2026-04-17 13:22 -34.07377 150.83957 2175 ft 139 kts 204°
2026-04-17 13:23 -34.08259 150.83499 2164 ft 139 kts 192°
2026-04-17 13:23 -34.09224 150.83493 2172 ft 139 kts 179°
2026-04-17 13:23 -34.10172 150.83538 2165 ft 139 kts 175°
2026-04-17 13:23 -34.11105 150.83887 2172 ft 140 kts 165°
2026-04-17 13:24 -34.12027 150.84269 2160 ft 140 kts 165°
2026-04-17 13:24 -34.12940 150.84636 2173 ft 137 kts 165°
2026-04-17 13:24 -34.13848 150.84994 2182 ft 138 kts 165°
2026-04-17 13:24 -34.14768 150.85367 2185 ft 140 kts 165°
2026-04-17 13:25 -34.15694 150.85715 2175 ft 139 kts 172°
2026-04-17 13:25 -34.16650 150.85823 2174 ft 138 kts 184°
2026-04-17 13:25 -34.17592 150.85795 2175 ft 135 kts 204°
2026-04-17 13:25 -34.18462 150.85424 2155 ft 129 kts 210°
2026-04-17 13:26 -34.19211 150.84939 2102 ft 119 kts 208°
2026-04-17 13:26 -34.19867 150.84402 1920 ft 107 kts 212°
2026-04-17 13:26 -34.20425 150.83896 1809 ft 93 kts 212°
2026-04-17 13:26 -34.20944 150.83468 1723 ft 85 kts 210°
2026-04-17 13:27 -34.21366 150.83067 1647 ft 67 kts 214°
2026-04-17 13:27 -34.21590 150.83332 1648 ft 110 kts 74°
2026-04-17 13:27 -34.20904 150.83908 1753 ft 130 kts 31°
2026-04-17 13:27 -34.20158 150.84473 1582 ft 117 kts 38°
2026-04-17 13:28 -34.19494 150.85009 1621 ft 118 kts 43°
2026-04-17 13:28 -34.18880 150.85640 1505 ft 116 kts 53°
2026-04-17 13:28 -34.18359 150.86370 1444 ft 121 kts 64°
2026-04-17 13:28 -34.17882 150.87216 1346 ft 114 kts 44°
2026-04-17 13:29 -34.17240 150.87440 1703 ft 85 kts 328°
2026-04-17 13:29 -34.17005 150.87054 1559 ft 52 kts 244°
2026-04-17 13:29 -34.17095 150.86466 1456 ft 85 kts 250°
2026-04-17 13:29 -34.17442 150.85833 1489 ft 97 kts 225°
2026-04-17 13:30 -34.17858 150.85133 1477 ft 114 kts 227°
2026-04-17 13:30 -34.18294 150.84318 1159 ft 117 kts 231°
2026-04-17 13:30 -34.18739 150.83563 1255 ft 105 kts 228°
2026-04-17 13:30 -34.19173 150.82891 1316 ft 94 kts 220°
2026-04-17 13:31 -34.19718 150.83108 1328 ft 106 kts 134°
2026-04-17 13:31 -34.19690 150.84085 1491 ft 138 kts 76°
2026-04-17 13:31 -34.18955 150.85004 1333 ft 158 kts 47°
2026-04-17 13:31 -34.18336 150.85976 1180 ft 121 kts 103°
2026-04-17 13:32 -34.18859 150.86138 1310 ft 109 kts 241°
2026-04-17 13:32 -34.18234 150.85613 1340 ft 148 kts 12°
2026-04-17 13:32 -34.17368 150.86285 1363 ft 153 kts 45°
2026-04-17 13:32 -34.16561 150.87125 1176 ft 150 kts 39°
2026-04-17 13:33 -34.15825 150.86760 1226 ft 121 kts 271°
2026-04-17 13:33 -34.16253 150.86067 1648 ft 109 kts 204°
2026-04-17 13:33 -34.17029 150.85653 1637 ft 129 kts 203°
2026-04-17 13:33 -34.17857 150.85118 1638 ft 136 kts 208°
2026-04-17 13:34 -34.18646 150.84549 1486 ft 126 kts 208°
2026-04-17 13:34 -34.19330 150.84017 1239 ft 111 kts 208°
2026-04-17 13:34 -34.19944 150.83513 1272 ft 105 kts 211°
2026-04-17 13:34 -34.20520 150.83008 1274 ft 98 kts 213°
2026-04-17 13:35 -34.21074 150.82529 1210 ft 94 kts 202°
2026-04-17 13:35 -34.21290 150.83092 1214 ft 112 kts 81°
2026-04-17 13:35 -34.20897 150.83527 1232 ft 120 kts 36°
2026-04-17 13:35 -34.20000 150.84215 1271 ft 115 kts 39°
2026-04-17 13:36 -34.19327 150.84761 1158 ft 112 kts 41°
2026-04-17 13:36 -34.18680 150.85273 1260 ft 114 kts 40°
2026-04-17 13:36 -34.17977 150.85815 1199 ft 119 kts 39°
2026-04-17 13:36 -34.17327 150.86419 1256 ft 121 kts 46°
2026-04-17 13:37 -34.16919 150.86882 1062 ft 118 kts 53°
2026-04-17 13:37 -34.16249 150.86839 1152 ft 112 kts 308°
2026-04-17 13:37 -34.16401 150.85904 1169 ft 86 kts 217°
2026-04-17 13:37 -34.16748 150.85366 1262 ft 83 kts 223°
2026-04-17 13:38 -34.17159 150.84815 1180 ft 92 kts 221°
2026-04-17 13:38 -34.17587 150.84231 1046 ft 96 kts 223°
2026-04-17 13:38 -34.17999 150.83584 1081 ft 98 kts 227°
2026-04-17 13:38 -34.18250 150.83114 1046 ft 100 kts 229°
2026-04-17 13:39 -34.18812 150.82337 1162 ft 95 kts 224°
2026-04-17 13:39 -34.19108 150.81932 1070 ft 97 kts 224°
2026-04-17 13:39 -34.19562 150.81333 1098 ft 99 kts 219°
2026-04-17 13:39 -34.20082 150.80744 1096 ft 103 kts 217°
2026-04-17 13:40 -34.20430 150.81231 1076 ft 110 kts 57°
2026-04-17 13:40 -34.19704 150.81320 1119 ft 123 kts 328°
2026-04-17 13:40 -34.18909 150.80813 1148 ft 144 kts 358°
2026-04-17 13:40 -34.18214 150.80833 1126 ft 149 kts
2026-04-17 13:41 -34.16922 150.80748 1056 ft 123 kts 312°
2026-04-17 13:41 -34.16976 150.80216 1080 ft 104 kts 220°
2026-04-17 13:41 -34.17682 150.80170 1065 ft 108 kts 173°
2026-04-17 13:41 -34.18416 150.80160 1159 ft 108 kts 183°
2026-04-17 13:42 -34.19126 150.80079 1160 ft 95 kts 187°
2026-04-17 13:42 -34.19448 150.80535 1016 ft 103 kts 78°
2026-04-17 13:42 -34.18382 150.80833 1084 ft 136 kts
2026-04-17 13:42 -34.17724 150.80849 1074 ft 145 kts
2026-04-17 13:43 -34.16849 150.80566 1009 ft 118 kts 285°
2026-04-17 13:43 -34.17269 150.80071 936 ft 100 kts 178°
2026-04-17 13:43 -34.17961 150.80130 919 ft 99 kts 179°
2026-04-17 13:43 -34.18658 150.80109 907 ft 102 kts 183°
2026-04-17 13:44 -34.19372 150.80079 998 ft 101 kts 184°
2026-04-17 13:44 -34.19970 150.80297 1080 ft 101 kts 119°
2026-04-17 13:44 -34.19500 150.80874 1153 ft 131 kts
2026-04-17 13:44 -34.18553 150.80846 989 ft 121 kts
2026-04-17 13:45 -34.17751 150.80838 1015 ft 128 kts
2026-04-17 13:45 -34.17217 150.80389 962 ft 103 kts 249°
2026-04-17 13:45 -34.18069 150.80709 1111 ft 139 kts 110°
2026-04-17 13:45 -34.17992 150.81507 1274 ft 148 kts 89°
2026-04-17 13:46 -34.17830 150.82748 1197 ft 154 kts 90°
2026-04-17 13:46 -34.17805 150.83948 1615 ft 134 kts 103°
2026-04-17 13:46 -34.18111 150.84887 1405 ft 112 kts 163°
2026-04-17 13:46 -34.18728 150.84417 1232 ft 125 kts 230°
2026-04-17 13:47 -34.19192 150.83516 1163 ft 125 kts 236°
2026-04-17 13:47 -34.19571 150.82546 1002 ft 130 kts 240°
2026-04-17 13:47 -34.19946 150.81582 1100 ft 132 kts 241°
2026-04-17 13:47 -34.20285 150.80558 1449 ft 125 kts 242°
2026-04-17 13:48 -34.21017 150.79905 1302 ft 141 kts 206°
2026-04-17 13:48 -34.21869 150.79411 1244 ft 137 kts 202°
2026-04-17 13:48 -34.22687 150.78864 1185 ft 132 kts 210°
2026-04-17 13:48 -34.23547 150.78709 1028 ft 138 kts 163°
2026-04-17 13:49 -34.24440 150.79149 1169 ft 139 kts 162°
2026-04-17 13:49 -34.25346 150.79589 1153 ft 140 kts 161°
2026-04-17 13:49 -34.26253 150.79986 1193 ft 140 kts 169°
2026-04-17 13:49 -34.27206 150.80302 1082 ft 139 kts 166°
2026-04-17 13:50 -34.27077 150.80857 1035 ft 104 kts 322°
2026-04-17 13:50 -34.27369 150.80420 1057 ft 112 kts 190°
2026-04-17 13:50 -34.28113 150.80651 1043 ft 83 kts 246°
2026-04-17 13:50 -34.27935 150.80848 1210 ft 81 kts 155°
2026-04-17 13:51 -34.28709 150.81067 1125 ft 129 kts 172°
2026-04-17 13:51 -34.29485 150.81666 997 ft 152 kts 131°
2026-04-17 13:51 -34.29504 150.83010 1296 ft 159 kts 88°
2026-04-17 13:51 -34.29453 150.84247 2037 ft 142 kts 99°
2026-04-17 13:52 -34.29439 150.85506 1885 ft 161 kts 98°
2026-04-17 13:52 -34.29539 150.86923 1721 ft 166 kts 102°
2026-04-17 13:52 -34.29684 150.88261 1295 ft 150 kts 94°
2026-04-17 13:52 -34.28945 150.88721 1343 ft 141 kts 329°
2026-04-17 13:53 -34.28684 150.87579 983 ft 151 kts 285°
2026-04-17 13:53 -34.28553 150.86373 1002 ft 144 kts 290°
2026-04-17 13:53 -34.28024 150.85392 1063 ft 138 kts 292°
2026-04-17 13:53 -34.27624 150.84339 1139 ft 137 kts 278°
2026-04-17 13:54 -34.27144 150.82303 1363 ft 110 kts 293°
2026-04-17 13:54 -34.26629 150.81337 1781 ft 152 kts 295°
2026-04-17 13:55 -34.25450 150.79215 1340 ft 149 kts 309°
2026-04-17 13:55 -34.24576 150.78744 1199 ft 138 kts
2026-04-17 13:55 -34.22828 150.79277 1040 ft 129 kts 34°
2026-04-17 13:56 -34.21411 150.80281 1349 ft 99 kts 35°
2026-04-17 13:56 -34.20797 150.80715 1219 ft 106 kts 37°
2026-04-17 13:56 -34.20287 150.81282 1285 ft 105 kts 65°
2026-04-17 13:57 -34.19851 150.82076 1272 ft 119 kts 67°
2026-04-17 13:57 -34.19396 150.82971 1267 ft 126 kts 62°
2026-04-17 13:57 -34.18189 150.84632 1184 ft 130 kts 55°
2026-04-17 13:58 -34.17549 150.85405 1329 ft 127 kts 49°
2026-04-17 13:58 -34.16320 150.86944 1077 ft 127 kts 58°
2026-04-17 13:58 -34.15542 150.87270 1137 ft 125 kts
2026-04-17 13:59 -34.13964 150.85924 941 ft 148 kts 312°
2026-04-17 13:59 -34.13112 150.85292 686 ft 142 kts 352°
2026-04-17 13:59 -34.12223 150.85209 811 ft 108 kts 353°
2026-04-17 14:00 -34.11509 150.85466 1000 ft 112 kts 40°
2026-04-17 14:00 -34.10996 150.86148 1236 ft 115 kts 68°
2026-04-17 14:00 -34.10696 150.86805 1044 ft 60 kts 61°
2026-04-17 14:00 -34.10474 150.87231 936 ft 71 kts 69°
2026-04-17 14:01 -34.10168 150.87717 828 ft 46 kts 66°
2026-04-17 14:01 -34.10100 150.87846 724 ft 12 kts 49°
2026-04-17 14:01 -34.10063 150.87902 716 ft 22 kts 56°
2026-04-17 14:01 -34.09779 150.88228 1066 ft 93 kts 35°
2026-04-17 14:02 -34.09222 150.87694 871 ft 101 kts 256°
2026-04-17 14:02 -34.09549 150.87039 843 ft 100 kts 235°
2026-04-17 14:02 -34.09934 150.86289 720 ft 110 kts 231°
2026-04-17 14:02 -34.10507 150.86072 777 ft 87 kts 155°
2026-04-17 14:03 -34.10679 150.86857 939 ft 117 kts 77°
2026-04-17 14:03 -34.10262 150.87603 978 ft 78 kts 59°
2026-04-17 14:03 -34.10122 150.87802 818 ft 6 kts 75°
2026-04-17 14:03 -34.10107 150.87858 686 ft 2 kts 60°
2026-04-17 14:04 -34.10096 150.87879 717 ft 23 kts 60°
2026-04-17 14:04 -34.09933 150.88256 1064 ft 84 kts 70°
2026-04-17 14:04 -34.09281 150.88630 942 ft 151 kts 347°
2026-04-17 14:04 -34.08847 150.87542 772 ft 155 kts 246°
2026-04-17 14:05 -34.09206 150.86381 815 ft 143 kts 244°
2026-04-17 14:05 -34.09707 150.85450 757 ft 122 kts 223°
2026-04-17 14:05 -34.10316 150.85014 717 ft 99 kts 159°
2026-04-17 14:05 -34.10313 150.85923 978 ft 127 kts 70°
2026-04-17 14:06 -34.09838 150.86836 1444 ft 130 kts 68°
2026-04-17 14:06 -34.09534 150.87751 1320 ft 94 kts 117°
2026-04-17 14:06 -34.09903 150.88016 896 ft 52 kts 191°
2026-04-17 14:06 -34.10074 150.87828 755 ft 5 kts 232°
2026-04-17 14:07 -34.10074 150.87811 668 ft 3 kts 250°
2026-04-17 14:07 -34.10072 150.87814 664 ft 0 kts 230°
2026-04-17 14:08 -34.10113 150.87711 766 ft 44 kts 239°
2026-04-17 14:08 -34.10392 150.87153 839 ft 106 kts 234°
2026-04-17 14:08 -34.10789 150.86298 796 ft 127 kts 237°
2026-04-17 14:09 -34.11217 150.85367 844 ft 127 kts 238°
2026-04-17 14:09 -34.11770 150.84731 820 ft 109 kts 174°
2026-04-17 14:09 -34.12442 150.85265 932 ft 122 kts 152°
2026-04-17 14:09 -34.13180 150.85812 992 ft 123 kts 152°
2026-04-17 14:10 -34.13691 150.86540 992 ft 126 kts 92°
2026-04-17 14:10 -34.13228 150.87567 1025 ft 147 kts 64°
2026-04-17 14:10 -34.12701 150.88620 1190 ft 149 kts 62°
2026-04-17 14:10 -34.11885 150.89143 832 ft 146 kts 343°
2026-04-17 14:11 -34.11055 150.88523 1073 ft 146 kts 327°
2026-04-17 14:11 -34.10194 150.87889 829 ft 115 kts 280°
2026-04-17 14:11 -34.10407 150.87207 863 ft 106 kts 240°
2026-04-17 14:11 -34.10732 150.86309 907 ft 120 kts 234°
2026-04-17 14:12 -34.11448 150.86383 906 ft 119 kts 153°
2026-04-17 14:12 -34.12153 150.86940 1109 ft 128 kts 151°
2026-04-17 14:12 -34.12915 150.87533 1038 ft 131 kts 154°
2026-04-17 14:13 -34.14468 150.87891 1056 ft 116 kts 206°
2026-04-17 14:13 -34.15163 150.87429 1088 ft 109 kts 211°
2026-04-17 14:13 -34.15741 150.86869 1307 ft 109 kts 220°
2026-04-17 14:13 -34.16296 150.86153 1218 ft 123 kts 225°
2026-04-17 14:14 -34.16845 150.85335 1315 ft 124 kts 228°
2026-04-17 14:14 -34.17313 150.84447 1247 ft 130 kts 235°
2026-04-17 14:14 -34.17987 150.83967 1126 ft 123 kts 158°
2026-04-17 14:14 -34.17922 150.84995 1280 ft 157 kts 60°
2026-04-17 14:15 -34.17124 150.86015 1337 ft 173 kts 52°
2026-04-17 14:15 -34.16315 150.87133 1120 ft 174 kts 56°
2026-04-17 14:15 -34.15571 150.88197 1271 ft 165 kts 54°
2026-04-17 14:15 -34.14746 150.89063 1300 ft 147 kts
2026-04-17 14:16 -34.14372 150.88339 1110 ft 122 kts 237°
2026-04-17 14:16 -34.15091 150.87818 1266 ft 129 kts 211°
2026-04-17 14:16 -34.15903 150.87216 1102 ft 141 kts 217°
2026-04-17 14:16 -34.16631 150.86504 1522 ft 128 kts 221°
2026-04-17 14:17 -34.17314 150.85683 1415 ft 148 kts 226°
2026-04-17 14:17 -34.17947 150.84757 1756 ft 139 kts 229°
2026-04-17 14:17 -34.18598 150.83706 1770 ft 159 kts 230°
2026-04-17 14:17 -34.19181 150.82672 1623 ft 146 kts 244°
2026-04-17 14:18 -34.18739 150.81832 1467 ft 145 kts 350°
2026-04-17 14:18 -34.17692 150.82038 1752 ft 158 kts 32°
2026-04-17 14:18 -34.16901 150.83025 1776 ft 167 kts 55°
2026-04-17 14:18 -34.16162 150.84141 1850 ft 176 kts 59°
2026-04-17 14:19 -34.15082 150.84713 1881 ft 176 kts 10°
2026-04-17 14:19 -34.13873 150.84681 1763 ft 174 kts 349°
2026-04-17 14:19 -34.12716 150.84404 1750 ft 165 kts 348°
2026-04-17 14:19 -34.11647 150.84135 1826 ft 153 kts 345°
2026-04-17 14:20 -34.10650 150.83797 1441 ft 147 kts 355°
2026-04-17 14:20 -34.09779 150.83764 1787 ft 107 kts
2026-04-17 14:20 -34.09097 150.83813 2047 ft 93 kts 11°
2026-04-17 14:20 -34.08435 150.83939 2014 ft 101 kts 20°
2026-04-17 14:21 -34.07719 150.84370 1834 ft 134 kts 38°
2026-04-17 14:21 -34.06831 150.84998 1906 ft 146 kts 37°
2026-04-17 14:21 -34.05908 150.85557 1880 ft 154 kts 26°
2026-04-17 14:21 -34.04923 150.85994 1875 ft 150 kts 22°
2026-04-17 14:22 -34.03934 150.86413 1893 ft 154 kts 22°
2026-04-17 14:22 -34.02928 150.86810 1893 ft 151 kts 22°
2026-04-17 14:22 -34.01925 150.87201 1897 ft 150 kts 22°
2026-04-17 14:22 -34.00922 150.87552 1943 ft 141 kts 17°
2026-04-17 14:23 -34.00016 150.87764 1990 ft 134 kts 15°
2026-04-17 14:23 -33.99100 150.87988 2000 ft 135 kts 15°
2026-04-17 14:23 -33.98180 150.88212 1979 ft 135 kts 15°
2026-04-17 14:23 -33.97258 150.88435 1975 ft 135 kts 13°
2026-04-17 14:24 -33.96341 150.88686 1979 ft 134 kts 17°
2026-04-17 14:24 -33.95414 150.88838 1980 ft 135 kts 353°
2026-04-17 14:24 -33.94568 150.89200 1982 ft 130 kts 65°
2026-04-17 14:24 -33.94399 150.90145 1967 ft 116 kts 131°
2026-04-17 14:25 -33.94957 150.90798 1973 ft 113 kts 170°
2026-04-17 14:25 -33.95587 150.91028 1989 ft 87 kts 165°
2026-04-17 14:25 -33.96076 150.91479 1956 ft 102 kts 131°
2026-04-17 14:25 -33.96494 150.92278 1691 ft 118 kts 129°
2026-04-17 14:26 -33.96942 150.93090 1671 ft 108 kts 148°
2026-04-17 14:26 -33.97662 150.93000 846 ft 111 kts 207°
2026-04-17 14:26 -33.98212 150.93174 808 ft 86 kts 152°
2026-04-17 14:26 -33.98637 150.93660 635 ft 86 kts 142°
2026-04-17 14:27 -33.98952 150.94134 460 ft 62 kts 138°
2026-04-17 14:27 -33.99156 150.94491 382 ft 43 kts 140°
2026-04-17 14:27 -33.99292 150.94716 348 ft 29 kts 137°
2026-04-17 14:27 -33.99372 150.94872 281 ft 13 kts 140°
2026-04-17 14:28 -33.99426 150.94970 264 ft 17 kts 149°
2026-04-17 14:28 -33.99477 150.95069 259 ft 4 kts 160°
2026-04-17 14:28 -33.99471 150.95060 256 ft 1 kts 170°
2026-04-17 14:28 -33.99469 150.95047 243 ft 0 kts 153°
2026-04-17 14:29 -33.99476 150.95052 243 ft 4 kts 132°
2026-04-17 14:29 -33.99506 150.95108 245 ft 9 kts 112°
2026-04-17 14:29 -33.99475 150.95152 243 ft 7 kts 33°
2026-04-17 14:29 -33.99443 150.95178 242 ft 4 kts 32°
2026-04-17 14:30 -33.99445 150.95203 242 ft 1 kts 124°
2026-04-17 14:30 -33.99451 150.95213 243 ft 0 kts 124°